FW8683 Weather Reports


time (UTC)temp
C
wind
direction
speed
KPH
gust
KPH
rain 1hr
cm
rain 24hr
cm
rain mn
cm
humidity
%
barometer
mb
20260509034544 23 0 0.0 3.2 0.00 0.00 0.00 66 1013.6
20260509033107 24 0 0.0 4.8 0.00 0.00 0.00 65 1013.6
20260509031543 25 0 0.0 4.8 0.00 0.00 0.00 63 1013.6
20260509030048 26 201 0.0 3.2 0.00 0.00 0.00 61 1013.5
20260509024556 27 0 0.0 3.2 0.00 0.00 0.00 58 1013.5
20260509023044 27 210 0.0 4.8 0.00 0.00 0.00 56 1013.5
20260509021544 28 127 0.0 8.0 0.00 0.00 0.00 54 1013.5
20260509020041 30 0 0.0 6.4 0.00 0.00 0.00 53 1013.5
20260509014550 30 126 0.0 4.8 0.00 0.00 0.00 51 1013.6
20260509013055 31 0 1.6 6.4 0.00 0.00 0.00 47 1013.7
20260509011555 31 360 0.0 4.8 0.00 0.00 0.00 42 1013.8
20260509010044 32 0 0.0 6.4 0.00 0.00 0.00 42 1013.9
20260509004546 32 0 0.0 3.2 0.00 0.00 0.00 40 1014.0
20260509003056 31 352 0.0 3.2 0.00 0.00 0.00 43 1014.2
20260509001541 31 350 1.6 9.7 0.00 0.00 0.00 42 1014.3
20260509000046 32 290 1.6 6.4 0.00 0.00 0.00 40 1014.4
20260508234546 32 220 0.0 8.0 0.00 0.00 0.00 44 1014.5
20260508233047 31 0 0.0 4.8 0.00 0.00 0.00 44 1014.7
20260508231551 31 0 1.6 9.7 0.00 0.00 0.00 44 1014.8
20260508230052 31 0 0.0 6.4 0.00 0.00 0.00 46 1015.0
20260508224550 30 0 1.6 4.8 0.00 0.00 0.00 46 1015.2
20260508223048 30 349 1.6 6.4 0.00 0.00 0.00 46 1015.4
20260508221545 30 18 1.6 8.0 0.00 0.00 0.00 47 1015.8
20260508220050 30 325 1.6 4.8 0.00 0.00 0.00 51 1016.0
20260508214546 28 29 1.6 8.0 0.00 0.00 0.00 47 1016.3
20260508213051 29 74 0.0 4.8 0.00 0.00 0.00 54 1016.5
20260508211540 28 302 3.2 8.0 0.00 0.00 0.00 51 1016.7
20260508210042 28 61 3.2 11.3 0.00 0.00 0.00 54 1016.9
20260508204546 27 0 1.6 8.0 0.00 0.00 0.00 53 1017.0
20260508203043 27 34 0.0 4.8 0.00 0.00 0.00 57 1017.0
20260508201543 27 35 3.2 8.0 0.00 0.00 0.00 56 1016.9
20260508200043 26 330 1.6 4.8 0.00 0.00 0.00 58 1017.2
20260508194548 25 320 1.6 8.0 0.00 0.00 0.00 57 1017.2
20260508193100 25 11 1.6 4.8 0.00 0.00 0.00 59 1017.5
20260508191600 25 317 1.6 8.0 0.00 0.00 0.00 59 1017.6
20260508184544 23 0 0.0 3.2 0.00 0.00 0.00 63 1017.7
20260508183044 22 0 1.6 4.8 0.00 0.00 0.00 66 1017.9
20260508181553 21 322 0.0 4.8 0.00 0.00 0.00 70 1017.8
20260508180046 20 0 0.0 4.8 0.00 0.00 0.00 70 1017.6
20260508174548 20 175 0.0 3.2 0.00 0.00 0.00 71 1017.8
20260508173044 19 174 0.0 3.2 0.00 0.00 0.00 74 1017.6
20260508171552 18 173 0.0 8.0 0.00 0.00 0.00 75 1017.8
20260508170052 18 192 0.0 4.8 0.00 0.00 0.00 77 1017.5
20260508164547 17 196 0.0 4.8 0.00 0.00 0.00 78 1017.6
20260508163058 16 0 0.0 3.2 0.00 0.00 0.00 79 1017.7
20260508161554 16 193 0.0 4.8 0.00 0.00 0.00 78 1017.7
20260508160043 16 192 0.0 1.6 0.00 0.00 0.00 81 1017.7
20260508154543 15 0 0.0 3.2 0.00 0.00 0.00 83 1017.7
20260508153106 14 0 0.0 4.8 0.00 0.00 0.00 85 1017.6
20260508151548 13 0 0.0 3.2 0.00 0.00 0.00 86 1017.4
20260508150051 12 0 0.0 3.2 0.00 0.00 0.00 88 1017.4
20260508144543 12 0 0.0 1.6 0.00 0.00 0.00 89 1017.2
20260508143101 12 0 0.0 3.2 0.00 0.00 0.00 89 1017.2
20260508141540 11 0 0.0 1.6 0.00 0.00 0.00 90 1017.0
20260508140057 11 0 0.0 3.2 0.00 0.00 0.00 90 1016.8
20260508134545 11 0 0.0 3.2 0.00 0.00 0.00 90 1016.6
20260508133042 11 0 0.0 1.6 0.00 0.00 0.00 90 1016.5
20260508131543 11 0 0.0 3.2 0.00 0.00 0.00 90 1016.5
20260508130040 11 0 0.0 0.0 0.00 0.00 0.00 90 1016.4
20260508124549 11 0 0.0 0.0 0.00 0.00 0.00 90 1016.3
20260508123048 11 0 0.0 1.6 0.00 0.00 0.00 89 1016.2
20260508121546 11 0 0.0 1.6 0.00 0.00 0.00 89 1016.2
20260508120050 11 0 0.0 3.2 0.00 0.00 0.00 88 1016.1
20260508114539 11 191 0.0 1.6 0.00 0.00 0.00 88 1016.0
20260508113053 11 191 0.0 4.8 0.00 0.00 0.00 88 1015.9
20260508111544 11 0 0.0 4.8 0.00 0.00 0.00 88 1015.8
20260508110048 12 0 0.0 3.2 0.00 0.00 0.00 88 1015.9
20260508104542 12 0 0.0 3.2 0.00 0.00 0.00 88 1015.9
20260508103050 12 191 0.0 3.2 0.00 0.00 0.00 87 1015.8
20260508101551 12 0 0.0 4.8 0.00 0.00 0.00 87 1015.7
20260508094544 12 192 0.0 4.8 0.00 0.00 0.00 86 1015.6
20260508093051 13 192 0.0 3.2 0.00 0.00 0.00 86 1015.6
20260508091608 13 0 0.0 4.8 0.00 0.00 0.00 86 1015.6
20260508090051 13 192 0.0 3.2 0.00 0.00 0.00 85 1015.5
20260508084547 13 0 0.0 3.2 0.00 0.00 0.00 85 1015.6
20260508083051 13 0 0.0 4.8 0.00 0.00 0.00 85 1015.8
20260508081610 14 0 0.0 1.6 0.00 0.00 0.00 84 1015.9
20260508080049 15 192 0.0 3.2 0.00 0.00 0.00 83 1015.8
20260508074549 15 198 0.0 1.6 0.00 0.00 0.00 82 1015.7
20260508073047 15 0 0.0 3.2 0.00 0.00 0.00 81 1015.5
20260508071544 16 0 0.0 3.2 0.00 0.00 0.00 80 1015.5
20260508070051 16 198 0.0 3.2 0.00 0.00 0.00 80 1015.4
20260508064549 17 0 0.0 1.6 0.00 0.00 0.00 79 1015.4
20260508063046 17 0 0.0 3.2 0.00 0.00 0.00 79 1015.3
20260508061545 18 0 0.0 3.2 0.00 0.00 0.00 78 1015.2
20260508060056 18 0 0.0 1.6 0.00 0.00 0.00 78 1015.2
20260508054613 18 0 0.0 1.6 0.00 0.00 0.00 77 1015.4
20260508053048 19 0 0.0 3.2 0.00 0.00 0.00 76 1015.4
20260508051548 20 0 0.0 3.2 0.00 0.00 0.00 75 1015.4
20260508050045 20 0 0.0 1.6 0.00 0.00 0.00 74 1015.4
20260508044543 21 198 0.0 1.6 0.00 0.00 0.00 73 1015.5
20260508043041 21 0 0.0 1.6 0.00 0.00 0.00 72 1015.2
20260508041551 21 0 0.0 4.8 0.00 0.00 0.00 71 1015.1
20260508040049 22 198 0.0 1.6 0.00 0.00 0.00 69 1015.0